Flag for South Korea Weather past 2 weeks in Cheongju, South Korea

Now
64 °F

Passing clouds.


Feels Like: 64 °F
Forecast: 62 / 80 °F
Wind: 3 mph from North

Location: Chongju Ab

Current Time: Aug 30, 2014 at 2:04:57 AM

Latest Report: Aug 30, 2014 at 1:00 AM


Visibility: N/A

Pressure: 30.01 "Hg

Humidity: 88%

Dew point: 61 °F

Location of CheongjuLocation

Historic Weather in Cheongju — Graph

°F

Cheongju temperature yesterday

Maximum temperature yesterday: 82 °F (at 2:00 PM)
Minimum temperature yesterday: 64 °F (at 2:00 AM)
Average temperature yesterday: 72 °F

Past Weeks' High & Low Weather Summary

 TemperatureHumidityPressure
High86 °F (Aug 16, 2:00 PM)94% (Aug 15, 6:00 AM)30.04 "Hg (Aug 15, 6:00 AM)
Low64 °F (Aug 29, 2:00 AM)46% (Aug 16, 4:00 PM)29.62 "Hg (Aug 21, 11:00 AM)
Average74 °F81%29.84 "Hg
* Reported Aug 15 1:00 AM — Aug 30 1:00 AM, Cheongju, Weather by CustomWeather, © 2014

Note: Actual official high and low records may vary slightly from our data, if they occured in-between our weather recording intervals... More about our weather records

Advertising

Cheongju weather history for previous 24 hours

 ConditionsComfort  
Time TempWeatherWind HumidityBarometerVisibility
1:00 AM
Aug 30
64 °FPassing clouds.3 mph88%30.01 "HgN/A
12:00 AM64 °FClear.3 mph88%30.01 "Hg10 mi
11:00 PM
Aug 29
66 °FClear.3 mph88%30.01 "Hg10 mi
10:00 PM70 °FClear.5 mph73%30.01 "Hg10 mi
9:00 PM68 °FPassing clouds.5 mph83%30.01 "HgN/A
8:00 PM70 °FPassing clouds.2 mph73%29.98 "HgN/A
7:00 PM75 °FPassing clouds.2 mph61%29.98 "HgN/A
6:00 PM79 °FPassing clouds.5 mph58%29.95 "HgN/A
5:00 PM81 °FPassing clouds.6 mph54%29.95 "HgN/A
4:00 PM81 °FPartly sunny.3 mph54%29.95 "HgN/A
3:00 PM81 °FPartly sunny.3 mph54%29.95 "HgN/A
2:00 PM82 °FPartly sunny.5 mph55%29.95 "HgN/A
1:00 PM81 °FScattered clouds.3 mph58%29.98 "HgN/A
12:00 PM79 °FScattered clouds.6 mph61%29.98 "HgN/A
11:00 AM77 °FScattered clouds.5 mph65%30.01 "HgN/A
10:00 AM75 °FPartly sunny.5 mph74%30.01 "HgN/A
9:00 AM72 °FPartly sunny.3 mph78%30.01 "HgN/A
8:00 AM70 °FSunny.3 mph83%30.01 "Hg10 mi
7:00 AM66 °FFog.1 mph88%30.01 "Hg3 mi
6:00 AM64 °FClear.1 mph94%30.01 "Hg6 mi
5:00 AM64 °FClear.1 mph88%30.01 "Hg10 mi
4:00 AM64 °FClear.3 mph88%30.01 "Hg10 mi
3:00 AM64 °FClear.3 mph94%30.01 "Hg10 mi
2:00 AM64 °FClear.2 mph88%30.01 "Hg10 mi
Weather by CustomWeather, © 2014

See weather overviewHow to use our weather pages